WZZ94YZ EYVI-EETN

Flight info

Callsign WZZ94YZ
Flight time N/A
Altitude 36000
Route ATMEZ DCT TAGOL DCT LUNIT DCT GONOS
Aircraft A21N/M-SDE3FGHIRWY/LB1

Departure

Time 2026-04-29 17:23
Airport Vilnius International Airport (EYVI)

Arrival

Time N/A
Airport Lennart Meri Tallinn Airport (EETN)
Time Latitude Longitude Altitude Speed Heading
2026-04-29 16:59 54.64163 25.28492 630 ft 0 kts 358°
2026-04-29 17:17 54.64173 25.28491 630 ft 5 kts 359°
2026-04-29 17:17 54.64206 25.28520 631 ft 6 kts 53°
2026-04-29 17:17 54.64215 25.28637 634 ft 13 kts 100°
2026-04-29 17:18 54.64139 25.28693 633 ft 14 kts 174°
2026-04-29 17:18 54.64023 25.28692 628 ft 19 kts 196°
2026-04-29 17:18 54.63877 25.28593 621 ft 26 kts 201°
2026-04-29 17:18 54.63696 25.28467 611 ft 28 kts 201°
2026-04-29 17:19 54.63510 25.28339 604 ft 28 kts 202°
2026-04-29 17:19 54.63322 25.28208 599 ft 28 kts 201°
2026-04-29 17:19 54.63137 25.28080 596 ft 28 kts 201°
2026-04-29 17:19 54.62962 25.27959 594 ft 26 kts 201°
2026-04-29 17:20 54.62790 25.27839 592 ft 25 kts 201°
2026-04-29 17:20 54.62636 25.27733 594 ft 21 kts 202°
2026-04-29 17:20 54.62539 25.27667 597 ft 12 kts 184°
2026-04-29 17:20 54.62456 25.27750 593 ft 15 kts 142°
2026-04-29 17:21 54.62424 25.27891 589 ft 12 kts 37°
2026-04-29 17:21 54.62445 25.27907 589 ft 0 kts 20°
2026-04-29 17:22 54.62605 25.28016 587 ft 60 kts 22°
2026-04-29 17:23 54.63196 25.28424 594 ft 122 kts 21°
2026-04-29 17:23 54.64142 25.29083 649 ft 168 kts 19°
2026-04-29 17:23 54.65229 25.29826 1238 ft 168 kts 19°
2026-04-29 17:23 54.66306 25.30563 1922 ft 169 kts 18°
2026-04-29 17:24 54.67391 25.31287 2590 ft 169 kts 18°
2026-04-29 17:24 54.68509 25.32029 3042 ft 179 kts 19°
2026-04-29 17:24 54.69715 25.32867 3404 ft 194 kts 19°
2026-04-29 17:24 54.71022 25.33773 3723 ft 213 kts 19°
2026-04-29 17:25 54.72455 25.34749 4204 ft 227 kts 19°
2026-04-29 17:25 54.73931 25.35770 4836 ft 233 kts 20°
2026-04-29 17:25 54.75425 25.36808 5596 ft 235 kts 20°
2026-04-29 17:25 54.76935 25.37871 6375 ft 235 kts 21°
2026-04-29 17:26 54.78424 25.38922 7113 ft 236 kts 21°
2026-04-29 17:26 54.79960 25.39880 7816 ft 238 kts 11°
2026-04-29 17:26 54.81616 25.40012 8479 ft 242 kts 353°
2026-04-29 17:26 54.83307 25.39428 8870 ft 257 kts 348°
2026-04-29 17:27 54.85065 25.38712 9435 ft 263 kts 347°
2026-04-29 17:27 54.86827 25.37983 10126 ft 264 kts 347°
2026-04-29 17:27 54.88621 25.37246 10751 ft 268 kts 348°
2026-04-29 17:27 54.90478 25.36490 11069 ft 283 kts 348°
2026-04-29 17:28 54.92442 25.35692 11402 ft 295 kts 348°
2026-04-29 17:28 54.94452 25.34876 11954 ft 300 kts 348°
2026-04-29 17:28 54.96466 25.34057 12588 ft 302 kts 348°
2026-04-29 17:28 54.98508 25.33228 13192 ft 304 kts 348°
2026-04-29 17:29 55.00576 25.32389 13785 ft 306 kts 348°
2026-04-29 17:29 55.02644 25.31547 14374 ft 307 kts 348°
2026-04-29 17:29 55.04702 25.30710 14946 ft 309 kts 348°
2026-04-29 17:29 55.06103 25.30140 15322 ft 310 kts 348°
2026-04-29 17:30 55.08895 25.29004 16048 ft 312 kts 348°
2026-04-29 17:30 55.11007 25.28143 16598 ft 314 kts 348°
2026-04-29 17:30 55.13126 25.27276 17266 ft 311 kts 348°
2026-04-29 17:30 55.15215 25.26424 17836 ft 311 kts 348°
2026-04-29 17:31 55.17317 25.25563 18326 ft 313 kts 348°
2026-04-29 17:31 55.19432 25.24696 18825 ft 314 kts 348°
2026-04-29 17:31 55.21550 25.23827 19314 ft 316 kts 349°
2026-04-29 17:31 55.23709 25.22940 19777 ft 318 kts 349°